Regional Weather Roundup
Issued by NWS

Home | Current Version | Previous Version | Text Only | Print | Product List | Glossary Off
Versions: 1 2 3 4 5 6 7 8 9 10 11 12 13 14 15 16 17 18 19 20 21 22 23 24 25 26 27 28 29 30 31 32 33 34 35 36 37 38 39 40 41 42 43 44 45 46 47 48 49 50

000
ASUS43 KDMX 222306
RWRIA

WEATHER ROUNDUP FOR IOWA
NATIONAL WEATHER SERVICE DES MOINES IA
600 PM CDT MON MAY 22 2017

NOTE: "FAIR" INDICATES FEW OR NO CLOUDS BELOW 12,000 FEET WITH NO
SIGNIFICANT WEATHER AND/OR OBSTRUCTIONS TO VISIBILITY.

* - THESE STATIONS ARE NOT NWS STATIONS...THUS NOT UNDER NWS
QUALITY CONTROL.  THEY ALSO DO NOT REPORT WEATHER SUCH
AS PRECIPITATION OR FOG.

IAZ001>003-012>014-020>022-031>034-043>046-230000-
   NORTHWEST IOWA

CITY           SKY/WX    TMP DP  RH WIND       PRES   REMARKS
CARROLL *      DRIZZLE   66  52  59 NW22G30   29.83R
CHEROKEE *     CLOUDY    60  51  71 NW10G18   29.84F
DENISON *      PTSUNNY   66  52  59 W9        29.84F
LE MARS *      SUNNY     63  48  59 W13       29.85F
ORANGE CITY *  MOSUNNY   63  52  67 W15       29.84F
SHELDON *      PTSUNNY   61  50  67 W17         N/A
SIOUX CITY     SUNNY     65  50  58 NW15G23   29.84F
SPENCER        CLOUDY    59  51  75 NW5       29.83F
STORM LAKE *   CLOUDY    63  48  59 NW26G35   29.83R
$$

IAZ055>058-069>071-079>083-090>094-230000-
   SOUTHWEST IOWA

CITY           SKY/WX    TMP DP  RH WIND       PRES   REMARKS
ATLANTIC *     CLOUDY    68  54  60 SW20      29.82F
AUDUBON *      RAIN      63  54  72 SW8       29.84S
CLARINDA *     CLOUDY    64  54  68 S15       29.88F
COUNCIL BLFS * CLOUDY    63  55  77 W10       29.87R
CRESTON *      CLOUDY    64  54  68 SW15G24   29.88F
HARLAN  *      CLOUDY    66  52  59 SW17G24   29.87R
LAMONI         PTSUNNY   62  55  77 SW16G26   29.91F
RED OAK *      CLOUDY    68  50  52 SW16      29.85S
SHENANDOAH *   CLOUDY    68  54  60 S16       29.87R
$$

IAZ047>049-059>061-072>074-084-230000-
   CENTRAL IOWA

CITY           SKY/WX    TMP DP  RH WIND       PRES   REMARKS
AMES           CLOUDY    68  53  58 SW16      29.81F
ANKENY *       CLOUDY    70  50  49 SW14G22   29.84F
BOONE *        CLOUDY    70  52  52 SW14      29.80F
DES MOINES     CLOUDY    70  53  54 SW14G25   29.83F
GRINNELL*      CLOUDY    69  53  58 SW20G25   29.85F
MARSHALLTOWN   CLOUDY    69  53  56 SW18      29.80F
NEWTON *       CLOUDY    70  54  56 SW18      29.83F
PELLA *        CLOUDY    67  54  61 SW9G18    29.87F
PERRY *          N/A     70  50  49 SW18      29.82F
$$

IAZ004>006-015-016-023>025-035-036-230000-
   NORTH CENTRAL IOWA

CITY           SKY/WX    TMP DP  RH WIND       PRES   REMARKS
ALGONA *       LGT RAIN  64  54  68 W31       29.82R
CLARION *      SUNNY     72  50  46 SW13G20   29.78F
ESTHERVILLE    TSTM      54  53  97 CALM      29.84R FOG
FORT DODGE *   CLOUDY    70  46  43 W8G17     29.80S
MASON CITY     CLOUDY    63  54  72 S3        29.80F THUNDER
FOREST CITY *    N/A     72  37  28 SW13      29.79S
WEBSTER CITY * CLOUDY    72  46  40 W13       29.77F
IOWA FALLS *     N/A     71  47  42 W13       29.80F
$$

IAZ007>011-017>019-026>030-037>042-050>054-066-230000-
   NORTHEAST IOWA

CITY           SKY/WX    TMP DP  RH WIND       PRES   REMARKS
CEDAR RAPIDS   MOSUNNY   65  58  78 SW10G22   29.84S
CHARLES CITY * CLOUDY    68  50  52 CALM      29.80F
CLINTON *      CLOUDY    65  55  70 SW23      29.87S
DECORAH *      CLOUDY    66  50  55 SW5       29.80F
DUBUQUE        CLOUDY    64  57  78 SW14      29.83S
MONTICELLO *   CLOUDY    66  57  72 SW13      29.84R
OELWEIN *      CLOUDY    68  52  56 W10       29.81S
WATERLOO       LGT RAIN  67  54  63 S17       29.78F
$$

IAZ064-065-067-068-078-230000-
   EAST CENTRAL IOWA

CITY           SKY/WX    TMP DP  RH WIND       PRES   REMARKS
DAVENPORT      CLOUDY    64  55  72 SW16G28   29.88F
IOWA CITY      CLOUDY    66  56  70 S14G21    29.87F
MT. PLEASANT * CLOUDY    62  56  81 SW13      29.91F
MUSCATINE *    CLOUDY    64  55  72 SW15G23   29.89F
QUAD CITIES    CLOUDY    64  54  69 SW12      29.88F
$$

IAZ062-063-075>077-085>089-095>099-230000-
   SOUTHEAST IOWA

CITY           SKY/WX    TMP DP  RH WIND       PRES   REMARKS
BURLINGTON     CLOUDY    61  59  93 S9        29.92F
FAIRFIELD *    MOSUNNY   64  55  72 SW15      29.89F
FORT MADISON *   N/A     63  61  94 S8G16     29.93F
KEOKUK *       CLOUDY    61  59  94 SW6       29.93S
OSKALOOSA *      N/A     64  56  75 SW17      29.88F
CENTERVILLE *    N/A     61  55  82 SW12G20   29.93S
OTTUMWA        CLOUDY    65  57  75 SW15      29.89S
WASHINGTON *   MOSUNNY   64  55  72 SW15      29.89F
$$

ABBREVIATIONS USED IN REMARKS
   TC - TEMPERATURES IN CELSIUS
  WCI - WIND CHILL INDEX
   HX - HEAT INDEX
  VSB - VISIBILITY
$$





USA.gov is the U.S. government's official web portal to all federal, state and local government web resources and services.